[[{"header":{"parameterUnit":"m.s-1","parameterCategory":1,"la1":30.2991,"la2":30.254,"lo1":-89.0895,"lo2":-89.0444,"dy":0.0017,"dx":0.0017,"nx":28,"ny":28,"refTime":"2025-07-07T03:00:00:Z","depth":0,"parameterNumber":2,"parameterNumberName":"U-component_of_WINDS"},"data":[0,0,0,0,0,0,0,0,0,0,0,0,0,0,0,0,0,0,0,0,0,0,0,0,0,0,0,0,0,0,0,0,0,0,0,0,0,0,0,0,0,0,0,0,0,0,0,0,0,0,0,0,0,0,0,0,0,0,3.0512,3.0513,0,3.0607,3.0608,3.0609,3.0537,3.0533,3.053,3.0527,3.0629,3.0634,3.064,0,0,0,0,0,0,0,0,0,0,0,0,0,3.0269,3.0274,3.0512,3.0513,3.0514,3.0607,3.0608,3.061,3.0537,3.0533,3.0529,3.0526,3.0627,3.0634,3.064,0,0,0,0,0,0,0,0,0,0,0,0,0,3.037,3.0275,3.0512,3.0489,3.0488,3.0607,3.0608,3.061,3.0538,3.0533,3.0528,3.0524,3.0625,3.0633,3.0641,3.0789,0,0,3.0667,3.0671,0,0,0,0,0,0,0,0,3.0365,3.0379,3.0491,3.0491,3.049,3.0555,3.056,3.067,3.0539,3.0519,3.0527,3.0522,3.0608,3.0618,3.0646,3.0793,3.0798,3.0668,3.0673,3.0677,3.0679,0,0,0,0,0,0,0,3.0358,3.0375,3.055,3.0493,3.0492,3.0475,3.0484,3.058,3.0589,3.0521,3.0515,3.0528,3.0607,3.0638,3.0648,3.0799,3.0668,3.0675,3.068,3.0684,3.1069,3.1074,0,0,0,0,0,0,3.0353,3.037,3.0547,3.0553,3.0414,3.0483,3.0493,3.0539,3.0588,3.0591,3.0531,3.0524,3.0626,3.0638,3.0651,3.0825,3.0677,3.0685,3.0689,3.1064,3.107,3.1076,0,0,0,0,0,0,3.0348,3.0369,3.0543,3.046,3.048,3.0492,3.0544,3.0543,3.0574,3.0596,3.0598,3.0562,3.0623,3.064,3.0754,3.0828,3.0688,3.0696,3.1058,3.1066,3.1073,3.1176,0,0,0,0,0,0,3.0341,3.0368,3.0424,3.0461,3.0485,3.0644,3.0549,3.0549,3.0589,3.058,3.0625,3.0628,3.062,3.0742,3.0763,3.0837,3.0703,3.1052,3.1062,3.1071,3.1166,3.1186,3.1203,0,0,0,0,0,3.0332,3.045,3.0427,3.0449,3.0555,3.0648,3.0662,3.065,3.0595,3.0651,3.0665,3.0626,3.0816,3.0754,3.0777,3.0855,3.1047,3.1059,3.107,3.1158,3.1182,3.1203,0,0,0,0,0,0,3.0423,3.0455,3.0429,3.0563,3.0603,3.0636,3.0707,3.0677,3.0735,3.0724,3.0707,3.0718,3.0838,3.0858,3.0788,3.0999,3.0923,3.094,3.0982,3.1005,3.1024,3.1016,3.071,0,0,0,0,0,3.0458,3.053,3.0554,3.0669,3.0691,3.0695,3.0736,3.0722,3.0764,3.0781,3.0803,3.0846,3.0915,3.0961,3.1026,3.1168,3.1176,3.1233,3.1252,3.1267,3.1282,3.1356,3.1381,3.1114,3.1114,3.1114,0,0,3.0532,3.0558,3.0605,3.0688,3.0718,3.0793,3.071,3.0794,3.085,3.0795,3.0903,3.0921,3.0968,3.1096,3.1154,3.1116,3.1357,3.1282,3.1294,3.13,3.1371,3.1396,3.1419,3.1122,3.1121,3.1119,0,0,3.0704,3.0732,3.083,3.0861,3.0906,3.0908,3.0931,3.0968,3.0977,3.1086,3.1045,3.1111,3.1231,3.1265,3.1298,3.1481,3.1448,3.1503,3.1601,3.1674,3.1695,3.1714,3.1778,3.1801,3.1518,3.1518,3.1518,0,3.0791,3.0902,3.0884,3.097,3.1008,3.0959,3.1057,3.1089,3.1154,3.1181,3.1137,3.1285,3.1313,3.1448,3.1492,3.1521,3.1547,3.1498,3.1693,3.1712,3.1729,3.179,3.1814,3.1524,3.1523,3.1523,3.1522,0,3.1005,3.1083,3.1156,3.1218,3.1263,3.1356,3.1352,3.1401,3.1383,3.1389,3.15,3.1531,3.1601,3.1632,3.1616,3.1764,3.1739,3.1695,3.1618,3.1761,3.1818,3.1841,3.1533,3.1531,3.1529,3.1528,0,0,3.1239,3.1287,3.1315,3.1341,3.1386,3.1446,3.1536,3.1602,3.1643,3.1689,3.1763,3.1864,3.1823,3.1861,3.1848,3.1913,3.2054,3.186,3.1861,3.1894,3.2217,3.2249,3.2277,3.2031,3.2036,3.2039,3.2212,0,3.1413,3.1567,3.1553,3.17,3.177,3.1723,3.1801,3.1837,3.1845,3.1907,3.1915,3.1987,3.1928,3.195,3.2011,3.2023,3.2118,3.2011,3.21,3.2104,3.209,3.2307,3.2342,3.2504,3.2235,3.2238,3.2241,0,3.1638,3.1689,3.1842,3.1873,3.1903,3.1973,3.2031,3.209,3.213,3.2131,3.2172,3.2148,3.2237,3.2158,3.2281,3.2209,3.2244,3.2256,3.2262,3.227,3.2181,3.232,3.2556,3.258,3.2276,3.2274,3.2271,0,3.1791,3.1899,3.2004,3.2028,3.2068,3.2118,3.2138,3.2172,3.2212,3.2263,3.2289,3.2351,3.2385,3.2433,3.2426,3.2369,3.2551,3.2472,3.2555,3.2555,3.2596,3.2593,3.284,3.2619,3.2619,3.2619,3.2618,0,3.1987,3.2083,3.2073,3.2138,3.2242,3.2225,3.2329,3.2343,3.2374,3.244,3.2404,3.2467,3.2454,3.2518,3.2513,3.2615,3.2631,3.2634,3.2632,3.2638,3.2637,3.2661,3.2649,3.2625,3.2624,3.2622,3.2621,0,3.2178,3.2175,3.2286,3.2314,3.2323,3.2399,3.2423,3.2484,3.2488,3.2572,3.2591,3.2597,3.2669,3.2667,3.275,3.2746,3.2872,3.2857,3.2858,3.2855,3.2937,3.2929,3.3208,3.3243,3.3,3.3002,3.3004,0,3.2303,3.2375,3.2409,3.245,3.2472,3.2539,3.2578,3.2563,3.2606,3.2655,3.271,3.2778,3.2832,3.295,3.2962,3.3025,3.3011,3.3104,3.302,3.3023,3.3011,3.3007,3.3013,3.3121,3.3123,3.3125,3.3127,0,3.2525,3.2519,3.2577,3.2634,3.2682,3.2727,3.2768,3.2803,3.2792,3.2843,3.2915,3.2956,3.3039,3.3107,3.3166,3.3186,3.3156,3.3153,3.3176,3.3182,3.318,3.3181,3.2902,3.3147,3.3145,3.3144,3.3143,3.3142,3.2686,3.2747,3.278,3.2845,3.2873,3.2912,3.2969,3.2979,3.3039,3.3103,3.3091,3.3172,3.3208,3.3284,3.3309,3.3372,3.334,3.3372,3.3381,3.3389,3.3398,3.3169,3.3383,3.3383,3.3382,3.3382,3.3381,0,3.2905,3.2924,3.2983,3.304,3.3091,3.3055,3.3098,3.3143,3.3214,3.325,3.3302,3.3384,3.345,3.3466,3.3529,3.3576,3.3563,3.3593,3.359,3.3594,3.3424,3.3398,3.3602,3.3602,3.3602,3.3602,3.3602,3.3602,3.3026,3.3126,3.3124,3.3237,3.3255,3.3332,3.3359,3.3394,3.3422,3.3515,3.3568,3.3578,3.3605,3.3669,3.3727,3.373,3.3755,3.3791,3.3788,3.3629,3.3607,3.3586,3.3561,3.3796,3.3796,3.3953,3.3955,3.3956]},{"header":{"parameterUnit":"m.s-1","parameterCategory":1,"la1":30.2991,"la2":30.254,"lo1":-89.0895,"lo2":-89.0444,"dy":0.0017,"dx":0.0017,"nx":28,"ny":28,"refTime":"2025-07-07T03:00:00:Z","depth":0,"parameterNumber":3,"parameterNumberName":"V-component_of_WINDS"},"data":[0,0,0,0,0,0,0,0,0,0,0,0,0,0,0,0,0,0,0,0,0,0,0,0,0,0,0,0,0,0,0,0,0,0,0,0,0,0,0,0,0,0,0,0,0,0,0,0,0,0,0,0,0,0,0,0,0,0,3.3679,3.3681,0,3.3838,3.3839,3.3841,3.3861,3.3859,3.3858,3.3856,3.4011,3.4016,3.4022,0,0,0,0,0,0,0,0,0,0,0,0,0,3.3384,3.339,3.3679,3.3681,3.3683,3.3837,3.384,3.3842,3.3861,3.3859,3.3857,3.3856,3.4009,3.4016,3.4022,0,0,0,0,0,0,0,0,0,0,0,0,0,3.3524,3.3392,3.3678,3.3711,3.3716,3.3837,3.384,3.3842,3.3861,3.3859,3.3857,3.3855,3.4007,3.4015,3.4023,3.412,0,0,3.4048,3.4052,0,0,0,0,0,0,0,0,3.3516,3.3535,3.3704,3.3709,3.3715,3.3827,3.3792,3.3935,3.3862,3.3806,3.3856,3.3854,3.3951,3.3964,3.3998,3.4127,3.4134,3.4049,3.4054,3.4058,3.406,0,0,0,0,0,0,0,3.3507,3.3528,3.3741,3.3707,3.3713,3.3715,3.3733,3.382,3.3889,3.3811,3.3812,3.3831,3.3953,3.399,3.4002,3.4136,3.4049,3.4056,3.4061,3.4065,3.4351,3.4353,0,0,0,0,0,0,3.3492,3.352,3.3736,3.3746,3.3608,3.3723,3.3742,3.3793,3.3888,3.3901,3.3833,3.3832,3.3977,3.3992,3.4008,3.4127,3.4058,3.4065,3.407,3.4348,3.4351,3.4354,0,0,0,0,0,0,3.3486,3.3511,3.373,3.3634,3.3662,3.373,3.3787,3.3798,3.3835,3.3905,3.3917,3.3859,3.3976,3.3996,3.4092,3.4132,3.4069,3.4077,3.4345,3.4349,3.4353,3.4366,0,0,0,0,0,0,3.3477,3.3509,3.3548,3.3635,3.3667,3.3814,3.379,3.3802,3.385,3.3849,3.3933,3.3944,3.3976,3.408,3.41,3.4143,3.4083,3.4342,3.4347,3.4352,3.4362,3.437,3.4376,0,0,0,0,0,3.3467,3.3544,3.355,3.3576,3.3718,3.3817,3.3835,3.3872,3.3853,3.3892,3.3937,3.3941,3.4125,3.4089,3.4113,3.4158,3.4339,3.4345,3.4351,3.4359,3.4368,3.4376,0,0,0,0,0,0,3.3458,3.3556,3.3564,3.3672,3.3736,3.382,3.387,3.3881,3.395,3.3946,3.3987,3.4006,3.41,3.4139,3.4098,3.4256,3.423,3.4241,3.4228,3.4237,3.4244,3.4232,3.409,0,0,0,0,0,3.3469,3.3544,3.3624,3.3712,3.3744,3.3802,3.3846,3.3869,3.3936,3.3963,3.4015,3.4077,3.4149,3.4195,3.4265,3.4368,3.4385,3.441,3.4417,3.4423,3.4431,3.4487,3.4499,3.4374,3.4374,3.4373,0,0,3.3492,3.3555,3.3599,3.3712,3.3764,3.3838,3.3824,3.3903,3.3957,3.3974,3.4069,3.4109,3.4181,3.4281,3.4327,3.4316,3.447,3.443,3.4434,3.444,3.4494,3.4506,3.4517,3.4378,3.4377,3.4376,0,0,3.3572,3.3628,3.3707,3.376,3.384,3.3878,3.3897,3.3979,3.4008,3.4104,3.4118,3.4181,3.4304,3.4355,3.4397,3.4495,3.45,3.4516,3.4553,3.4607,3.4617,3.4625,3.4659,3.4671,3.4525,3.4525,3.4525,0,3.359,3.3704,3.3745,3.3824,3.3872,3.3893,3.3972,3.402,3.4118,3.415,3.4136,3.4291,3.4341,3.4452,3.4476,3.451,3.4531,3.4507,3.4612,3.4622,3.4631,3.4663,3.4676,3.4526,3.4526,3.4526,3.4526,0,3.3721,3.38,3.3854,3.3951,3.4005,3.4083,3.4133,3.4183,3.4201,3.4239,3.4336,3.4397,3.4479,3.4507,3.4525,3.4621,3.4611,3.4605,3.4579,3.4643,3.4675,3.4687,3.4528,3.4527,3.4527,3.4527,0,0,3.38,3.3919,3.3938,3.3982,3.4072,3.4132,3.421,3.4293,3.4334,3.44,3.4465,3.4569,3.4563,3.4611,3.4634,3.4682,3.4754,3.4669,3.4671,3.4682,3.4862,3.4866,3.488,3.4759,3.4761,3.4763,3.4855,0,3.3889,3.4032,3.4071,3.4191,3.4263,3.4284,3.4351,3.4412,3.445,3.4514,3.4554,3.4627,3.4615,3.4644,3.4692,3.4735,3.479,3.4729,3.4817,3.4819,3.4798,3.4896,3.4901,3.4985,3.4868,3.487,3.4872,0,3.4013,3.4085,3.4212,3.4293,3.4324,3.4385,3.4464,3.4526,3.4594,3.4618,3.4671,3.469,3.4769,3.474,3.4848,3.4806,3.4843,3.487,3.4874,3.4883,3.4849,3.4907,3.5013,3.5025,3.4891,3.489,3.4888,0,3.4056,3.4184,3.4278,3.4314,3.4411,3.4452,3.4494,3.4561,3.4608,3.4675,3.4706,3.4781,3.4821,3.4878,3.4915,3.4891,3.502,3.4994,3.504,3.5039,3.5066,3.5063,3.5178,3.5091,3.5091,3.5091,3.509,0,3.4152,3.4229,3.4298,3.4355,3.4441,3.4484,3.4567,3.4609,3.4668,3.4731,3.4753,3.4811,3.4858,3.4921,3.4951,3.5035,3.5053,3.5073,3.508,3.5071,3.5068,3.5096,3.5091,3.5094,3.5093,3.5093,3.5092,0,3.4215,3.4265,3.4367,3.4451,3.4473,3.4533,3.4603,3.4657,3.4696,3.4776,3.4796,3.4856,3.4932,3.4976,3.5071,3.509,3.5184,3.5188,3.5162,3.5164,3.5208,3.5203,3.5344,3.5364,3.5264,3.5265,3.5266,0,3.4272,3.4332,3.4423,3.4468,3.4511,3.4584,3.4632,3.4676,3.4725,3.4808,3.4852,3.493,3.4995,3.5115,3.5165,3.5237,3.5243,3.5287,3.5254,3.5242,3.5242,3.5238,3.5243,3.5293,3.5293,3.5294,3.5295,0,3.4368,3.439,3.4461,3.4541,3.4599,3.4663,3.4727,3.4762,3.4815,3.4869,3.4949,3.5,3.5098,3.5174,3.5251,3.529,3.5301,3.5305,3.532,3.5311,3.5293,3.5302,3.5177,3.5302,3.5301,3.53,3.53,3.53,3.443,3.4484,3.4556,3.4634,3.4687,3.4746,3.4801,3.4847,3.4916,3.5001,3.5022,3.5105,3.517,3.5275,3.5316,3.538,3.5372,3.5393,3.5398,3.5402,3.5403,3.5283,3.5394,3.5394,3.5394,3.5394,3.5393,0,3.4526,3.4574,3.4646,3.4735,3.4796,3.4803,3.4873,3.4923,3.4997,3.5059,3.5123,3.5213,3.5287,3.5343,3.5418,3.5458,3.5465,3.5477,3.5473,3.5482,3.5407,3.5387,3.547,3.547,3.547,3.547,3.547,3.547,3.4584,3.4676,3.4706,3.4823,3.4869,3.4954,3.4993,3.5046,3.5096,3.5197,3.526,3.5297,3.5355,3.5435,3.5502,3.5516,3.5542,3.5553,3.5567,3.5496,3.5487,3.548,3.5461,3.5559,3.5559,3.5638,3.5638,3.5639]}]]